Stations météo

réclame
Mon MeteoGroup
Spa/La Sauveniere, Belgique (6490): Température de l'air & dewpoint: 26.05.2020 02:00:00 - 01.06.2020 02:00:00 (CEST)Spa/La Sauveniere, Belgique (6490): Vitesse du vent & gusts: 26.05.2020 02:00:00 - 01.06.2020 02:00:00 (CEST)Spa/La Sauveniere, Belgique (6490): Direction du vent: 26.05.2020 02:00:00 - 01.06.2020 02:00:00 (CEST)Spa/La Sauveniere, Belgique (6490): reduced air pressure: 26.05.2020 02:00:00 - 01.06.2020 02:00:00 (CEST)Spa/La Sauveniere, Belgique (6490): visibility: 26.05.2020 02:00:00 - 01.06.2020 02:00:00 (CEST)
Date & Time tt [°C] td [°C] ff [km/h] ff [knt] fx [km/h] fx [knt] dd ppp [hPa] vv [km]
01.06.2020 02:00:00 12,0 4,5 11 6 - - ESE 1022,1 50
01.06.2020 01:00:00 12,3 4,3 14 8 25 14 ESE 1022,0 50
01.06.2020 00:00:00 12,2 3,9 14 8 22 12 SE 1022,2 50
31.05.2020 23:00:00 12,9 4,3 11 6 - - SE 1021,8 50
31.05.2020 22:00:00 14,6 3,9 11 6 18 10 ESE 1021,2 45
31.05.2020 21:00:00 16,9 4,1 14 8 32 18 ENE 1020,4 45
31.05.2020 20:00:00 18,4 2,8 18 10 - - ENE 1019,8 45
31.05.2020 19:00:00 18,2 2,5 18 10 36 19 NE 1019,7 40
31.05.2020 18:00:00 18,8 2,7 14 8 36 19 E 1019,8 35
31.05.2020 17:00:00 18,8 3,1 14 8 - - ENE 1019,8 30
31.05.2020 16:00:00 18,6 2,3 18 10 32 18 ENE 1020,0 35
31.05.2020 15:00:00 18,6 0,9 11 6 32 18 ENE 1020,1 30
31.05.2020 14:00:00 17,1 -0,3 18 10 - - E 1020,8 35
31.05.2020 13:00:00 16,9 4,6 11 6 32 18 - 1020,9 45
31.05.2020 12:00:00 15,6 3,0 14 8 32 18 NE 1021,5 40
31.05.2020 11:00:00 14,9 3,4 14 8 - - NE 1021,9 35
31.05.2020 10:00:00 14,6 3,4 18 10 25 14 ENE 1021,9 35
31.05.2020 09:00:00 14,3 3,8 11 6 18 10 NE 1021,8 40
31.05.2020 08:00:00 13,8 5,3 4 2 - - N 1021,7 40
31.05.2020 07:00:00 11,1 3,2 7 4 14 8 ESE 1022,1 45
31.05.2020 06:00:00 10,2 2,3 11 6 14 8 ESE 1022,2 50
31.05.2020 05:00:00 10,8 1,8 11 6 - - ESE 1022,1 50
31.05.2020 04:00:00 11,1 1,8 14 8 22 12 ESE 1022,2 50
31.05.2020 03:00:00 11,4 1,5 14 8 25 14 SE 1022,2 45
31.05.2020 02:00:00 11,8 1,8 18 10 - - SE 1022,3 45
31.05.2020 01:00:00 12,2 2,4 14 8 29 16 SE 1022,4 45
31.05.2020 00:00:00 13,4 2,5 11 6 18 10 ESE 1022,2 45
30.05.2020 23:00:00 14,5 2,9 11 6 - - ESE 1021,8 45
30.05.2020 22:00:00 15,1 3,4 7 4 29 16 E 1021,2 45
30.05.2020 21:00:00 17,3 2,6 14 8 25 14 NE 1020,2 45
30.05.2020 20:00:00 18,6 3,0 14 8 - - E 1020,1 45
30.05.2020 19:00:00 19,1 3,5 14 8 32 18 NE 1020,1 40
30.05.2020 18:00:00 19,1 3,7 18 10 32 18 ENE 1020,5 35
30.05.2020 17:00:00 19,9 3,2 18 10 - - ENE 1020,6 35
30.05.2020 16:00:00 19,4 2,9 18 10 32 18 NE 1020,9 40
30.05.2020 15:00:00 18,8 3,4 18 10 36 19 ENE 1021,5 35
30.05.2020 14:00:00 19,4 2,9 18 10 - - ENE 1021,7 35
30.05.2020 13:00:00 18,5 2,5 18 10 36 19 E 1022,3 28
30.05.2020 12:00:00 17,9 2,1 22 12 36 19 ESE 1022,8 30
30.05.2020 11:00:00 16,5 2,2 18 10 - - ESE 1023,3 30
30.05.2020 10:00:00 15,7 2,3 18 10 32 18 ESE 1023,6 35
30.05.2020 09:00:00 15,0 3,2 22 12 29 16 ESE 1023,7 40
30.05.2020 08:00:00 13,6 2,1 18 10 - - ESE 1023,7 35
30.05.2020 07:00:00 11,3 2,2 18 10 25 14 SE 1024,0 40
30.05.2020 06:00:00 10,2 1,4 18 10 25 14 SE 1024,1 45
30.05.2020 05:00:00 10,6 1,2 18 10 - - SE 1024,1 45
30.05.2020 04:00:00 11,1 1,3 22 12 25 14 SE 1024,1 45
30.05.2020 03:00:00 11,7 1,6 18 10 29 16 SE 1024,0 45
30.05.2020 02:00:00 12,7 1,0 22 12 - - SE 1023,9 45
30.05.2020 01:00:00 13,0 0,9 18 10 25 14 SE 1023,7 50
30.05.2020 00:00:00 13,1 0,1 7 4 11 6 E 1023,9 45
29.05.2020 23:00:00 13,5 3,9 4 2 - - E 1023,8 45
29.05.2020 22:00:00 14,4 3,7 4 2 18 10 E 1023,6 45
29.05.2020 21:00:00 16,7 3,7 7 4 22 12 NE 1023,0 40
29.05.2020 20:00:00 18,4 2,6 11 6 - - ENE 1022,9 35
29.05.2020 19:00:00 19,0 2,5 11 6 32 18 ENE 1023,2 30
29.05.2020 18:00:00 19,5 2,7 11 6 25 14 ENE 1023,4 35
29.05.2020 17:00:00 19,2 3,0 14 8 - - ENE 1023,8 30
29.05.2020 16:00:00 19,2 1,7 14 8 29 16 E 1024,4 26
29.05.2020 15:00:00 18,8 1,8 11 6 29 16 ENE 1024,9 35
29.05.2020 14:00:00 18,0 2,6 11 6 - - - 1025,7 35
29.05.2020 13:00:00 17,7 2,5 11 6 29 16 SE 1026,5 30
29.05.2020 12:00:00 17,1 1,8 11 6 25 14 E 1027,2 30
29.05.2020 11:00:00 16,4 2,3 14 8 - - E 1027,8 40
29.05.2020 10:00:00 15,4 1,8 11 6 22 12 SE 1028,0 30
29.05.2020 09:00:00 14,3 2,4 11 6 18 10 SE 1028,3 30
29.05.2020 08:00:00 13,2 3,4 11 6 - - E 1028,5 30
29.05.2020 07:00:00 10,4 3,5 4 2 14 8 ESE 1028,9 35
29.05.2020 06:00:00 9,2 1,8 11 6 22 12 SE 1029,0 40
29.05.2020 05:00:00 9,8 1,9 14 8 - - ESE 1029,1 45
29.05.2020 04:00:00 8,9 1,6 7 4 14 8 ESE 1029,6 40
29.05.2020 03:00:00 8,7 1,4 4 2 11 6 E 1029,9 45
29.05.2020 02:00:00 10,1 0,9 7 4 - - E 1029,9 45
29.05.2020 01:00:00 11,5 1,1 7 4 22 12 E 1029,9 45
29.05.2020 00:00:00 12,4 1,0 14 8 22 12 E 1029,8 45
28.05.2020 23:00:00 12,8 0,1 7 4 - - E 1029,7 45
28.05.2020 22:00:00 12,5 1,5 4 2 18 10 E 1029,8 45
28.05.2020 21:00:00 14,7 0,7 11 6 25 14 NE 1029,2 45
28.05.2020 20:00:00 16,3 0,7 11 6 - - NNE 1029,2 35
28.05.2020 19:00:00 17,3 1,2 14 8 29 16 NNE 1029,3 35
28.05.2020 18:00:00 18,0 1,9 14 8 29 16 NE 1029,6 30
28.05.2020 17:00:00 17,7 2,3 14 8 - - N 1029,8 30
28.05.2020 16:00:00 17,6 2,2 18 10 40 21 N 1030,3 30
28.05.2020 15:00:00 17,8 2,4 14 8 32 18 - 1030,6 35
28.05.2020 14:00:00 16,5 2,3 14 8 - - NNE 1031,2 30
28.05.2020 13:00:00 16,3 2,2 18 10 40 21 ENE 1031,6 35
28.05.2020 12:00:00 16,2 1,4 18 10 36 19 NE 1031,9 35
28.05.2020 11:00:00 15,3 1,6 22 12 - - ENE 1032,3 40
28.05.2020 10:00:00 13,6 5,1 14 8 32 18 ENE 1032,7 25
28.05.2020 09:00:00 11,9 6,2 18 10 29 16 ENE 1032,9 20
28.05.2020 08:00:00 9,5 5,2 11 6 - - NE 1033,3 25
28.05.2020 07:00:00 7,9 4,4 11 6 18 10 ENE 1033,6 28
28.05.2020 06:00:00 7,9 5,4 11 6 18 10 ENE 1033,3 35
28.05.2020 05:00:00 8,4 6,9 7 4 - - NE 1033,1 26
28.05.2020 04:00:00 9,4 7,6 7 4 11 6 NNE 1033,0 26
28.05.2020 03:00:00 9,8 6,8 4 2 11 6 NNE 1033,0 40
28.05.2020 02:00:00 10,1 6,0 0 0 - - N 1033,2 45
28.05.2020 01:00:00 11,0 5,8 0 0 11 6 N 1033,3 50
28.05.2020 00:00:00 12,3 5,9 4 2 14 8 NNE 1033,3 45
27.05.2020 23:00:00 13,9 7,1 7 4 - - NNE 1032,9 45
27.05.2020 22:00:00 14,8 7,8 7 4 18 10 N 1032,2 40
27.05.2020 21:00:00 16,9 7,9 7 4 22 12 N 1031,4 40
27.05.2020 20:00:00 18,1 9,4 11 6 - - N 1031,2 21
27.05.2020 19:00:00 18,7 9,3 11 6 25 14 N 1031,2 19
27.05.2020 18:00:00 19,0 8,4 11 6 29 16 N 1031,4 29
27.05.2020 17:00:00 19,2 7,4 14 8 - - NNE 1031,5 21
27.05.2020 16:00:00 20,3 8,0 14 8 25 14 NNW 1031,6 26
27.05.2020 15:00:00 19,5 6,8 11 6 32 18 NW 1032,2 30
27.05.2020 14:00:00 20,0 6,3 11 6 - - N 1032,3 26
27.05.2020 13:00:00 19,1 6,8 7 4 25 14 N 1032,7 30
27.05.2020 12:00:00 18,4 6,9 11 6 25 14 - 1033,2 28
27.05.2020 11:00:00 17,3 6,7 7 4 - - NNW 1033,5 26
27.05.2020 10:00:00 16,6 6,8 4 2 11 6 NNW 1033,7 30
27.05.2020 09:00:00 15,2 6,3 4 2 7 4 NW 1034,1 27
27.05.2020 08:00:00 - - 0 0 - - N - 29
27.05.2020 07:00:00 11,0 6,5 4 2 11 6 - 1034,6 40
27.05.2020 06:00:00 10,2 5,5 11 6 18 10 SSE 1034,6 40
27.05.2020 05:00:00 10,7 5,6 18 10 - - SSE 1034,3 45
27.05.2020 04:00:00 12,0 5,0 14 8 18 10 SSE 1034,2 40
27.05.2020 03:00:00 12,2 5,1 11 6 18 10 SE 1034,5 40
27.05.2020 02:00:00 12,5 5,0 14 8 - - SE 1034,7 40
27.05.2020 01:00:00 12,3 4,7 11 6 14 8 SE 1034,9 45
27.05.2020 00:00:00 13,6 3,8 11 6 14 8 ESE 1034,7 40
26.05.2020 23:00:00 13,0 3,7 7 4 - - ESE 1035,1 45
26.05.2020 22:00:00 13,6 3,1 7 4 14 8 E 1034,8 45
26.05.2020 21:00:00 15,3 2,8 7 4 18 10 NE 1034,3 40
26.05.2020 20:00:00 17,7 2,8 7 4 - - NE 1033,6 40
26.05.2020 19:00:00 18,7 3,6 11 6 32 18 N 1033,5 35
26.05.2020 18:00:00 18,9 4,8 11 6 32 18 N 1033,6 30
26.05.2020 17:00:00 19,1 6,1 14 8 - - N 1033,6 35
26.05.2020 16:00:00 18,8 4,5 18 10 32 18 N 1034,0 30
26.05.2020 15:00:00 18,6 6,4 14 8 29 16 N 1034,2 29
26.05.2020 14:00:00 17,8 3,7 14 8 - - NNE 1034,6 27
26.05.2020 13:00:00 17,1 5,5 14 8 29 16 N 1034,9 30
26.05.2020 12:00:00 16,4 6,9 11 6 25 14 NNE 1035,1 27
26.05.2020 11:00:00 14,6 6,2 11 6 - - N 1035,5 28
26.05.2020 10:00:00 13,7 5,6 11 6 22 12 N 1035,8 35
26.05.2020 09:00:00 12,5 8,2 7 4 14 8 N 1035,5 29
26.05.2020 08:00:00 12,3 8,7 4 2 - - N 1035,4 20
26.05.2020 07:00:00 10,1 7,5 4 2 7 4 ESE 1035,4 15
26.05.2020 06:00:00 8,0 6,8 4 2 7 4 ESE 1035,6 11
26.05.2020 05:00:00 8,5 7,2 7 4 - - ESE 1035,3 15
26.05.2020 04:00:00 9,0 7,0 7 4 11 6 SSE 1035,2 18
26.05.2020 03:00:00 9,8 7,0 7 4 11 6 ESE 1035,1 28
26.05.2020 02:00:00 9,9 7,1 7 4 - - E 1035,3 30

tt = Température de l'air
td = dewpoint
ff = Vitesse du vent
fx = gusts
dd = Direction du vent
ppp = reduced air pressure
vv = visibility

stations d'obs. à proximité